[[{"header":{"parameterUnit":"m.s-1","parameterCategory":1,"la1":30.2991,"la2":30.254,"lo1":-89.0895,"lo2":-89.0444,"dy":0.0017,"dx":0.0017,"nx":28,"ny":28,"refTime":"2024-05-13T21:00:00:Z","depth":0,"parameterNumber":2,"parameterNumberName":"U-component_of_WINDS"},"data":[0,0,0,0,0,0,0,0,0,0,0,0,0,0,0,0,0,0,0,0,0,0,0,0,0,0,0,0,0,0,0,0,0,0,0,0,0,0,0,0,0,0,0,0,0,0,0,0,0,0,0,0,0,0,0,0,0,0,2.5465,2.5465,0,2.5539,2.554,2.554,2.5525,2.5523,2.5522,2.5521,2.5596,2.5599,2.5602,0,0,0,0,0,0,0,0,0,0,0,0,0,2.5309,2.5312,2.5465,2.5466,2.5467,2.5539,2.554,2.5541,2.5525,2.5523,2.5522,2.552,2.5595,2.5598,2.5602,0,0,0,0,0,0,0,0,0,0,0,0,0,2.5379,2.5313,2.5464,2.5467,2.5468,2.5538,2.554,2.5541,2.5525,2.5523,2.5521,2.5519,2.5593,2.5598,2.5603,2.5674,0,0,2.5618,2.562,0,0,0,0,0,0,0,0,2.5375,2.5385,2.5466,2.5467,2.5469,2.552,2.5512,2.5586,2.5526,2.5504,2.5521,2.5518,2.5572,2.5579,2.5597,2.5678,2.5681,2.5618,2.5621,2.5623,2.5625,0,0,0,0,0,0,0,2.537,2.5381,2.5494,2.5467,2.5469,2.5465,2.5472,2.5526,2.5549,2.5505,2.5505,2.5514,2.5572,2.5592,2.5599,2.5682,2.5618,2.5623,2.5626,2.5627,2.5825,2.5827,0,0,0,0,0,0,2.5364,2.5377,2.5492,2.5496,2.5416,2.5469,2.5478,2.5506,2.5548,2.5552,2.5515,2.5513,2.5585,2.5593,2.5601,2.5687,2.5623,2.5628,2.5631,2.5823,2.5826,2.5828,0,0,0,0,0,0,2.5361,2.5375,2.5489,2.5437,2.5451,2.5474,2.5506,2.5508,2.5528,2.5555,2.5559,2.5531,2.5584,2.5594,2.5656,2.569,2.563,2.5635,2.582,2.5824,2.5827,2.586,0,0,0,0,0,0,2.5357,2.5374,2.5401,2.5437,2.5454,2.5543,2.5508,2.5511,2.5537,2.5534,2.5572,2.5576,2.5583,2.5649,2.5661,2.5695,2.5638,2.5817,2.5822,2.5826,2.5856,2.5864,2.5871,0,0,0,0,0,2.5351,2.5407,2.5402,2.5416,2.5489,2.5545,2.5554,2.5561,2.554,2.5567,2.5585,2.5575,2.5684,2.5656,2.5669,2.5705,2.5815,2.5821,2.5826,2.5853,2.5863,2.5871,0,0,0,0,0,0,2.5373,2.5412,2.5407,2.5477,2.5508,2.5542,2.5577,2.5572,2.5609,2.5604,2.5612,2.562,2.5683,2.5701,2.5668,2.5777,2.5747,2.5755,2.5763,2.5772,2.578,2.5774,2.5643,0,0,0,0,0,2.5387,2.5429,2.5461,2.5519,2.5535,2.5553,2.5578,2.5581,2.5613,2.5626,2.5648,2.5679,2.5721,2.5748,2.5787,2.5859,2.5867,2.5891,2.5898,2.5904,2.5911,2.595,2.5961,2.5845,2.5845,2.5845,0,0,2.5414,2.544,2.5467,2.5524,2.5548,2.5592,2.5564,2.5611,2.5644,2.5633,2.5693,2.571,2.5745,2.5813,2.5843,2.5829,2.5945,2.5911,2.5916,2.5919,2.5956,2.5967,2.5977,2.5849,2.5848,2.5848,0,0,2.5486,2.551,2.5562,2.5587,2.5624,2.5636,2.5648,2.5684,2.5695,2.5755,2.5748,2.5787,2.5858,2.5884,2.5906,2.5989,2.598,2.6002,2.6041,2.6078,2.6087,2.6096,2.6124,2.6135,2.6008,2.6008,2.6008,0,2.5515,2.558,2.5588,2.5637,2.5662,2.5655,2.5707,2.5731,2.5779,2.5796,2.578,2.587,2.5893,2.5966,2.5986,2.6005,2.6019,2.5997,2.6086,2.6094,2.6101,2.6129,2.614,2.6011,2.601,2.601,2.601,0,2.5614,2.566,2.5697,2.5744,2.5774,2.5823,2.5838,2.5868,2.5869,2.5882,2.5944,2.5972,2.6017,2.6035,2.6036,2.6108,2.6098,2.6084,2.6054,2.6115,2.614,2.6151,2.6014,2.6013,2.6012,2.6012,0,0,2.57,2.5752,2.5766,2.5787,2.5828,2.5863,2.5913,2.5958,2.5982,2.6016,2.6057,2.6119,2.6106,2.6131,2.6135,2.6169,2.6232,2.615,2.6151,2.6164,2.6312,2.6322,2.6334,2.6227,2.6229,2.6231,2.6309,0,2.5775,2.5863,2.5872,2.595,2.5992,2.5987,2.603,2.606,2.6074,2.6112,2.6128,2.6171,2.6151,2.6166,2.6199,2.6217,2.6262,2.6212,2.6265,2.6267,2.6255,2.6348,2.6358,2.643,2.6319,2.6321,2.6322,0,2.5874,2.5911,2.5993,2.6029,2.6047,2.6086,2.6127,2.6164,2.6198,2.6206,2.6235,2.6235,2.6286,2.6255,2.6325,2.6291,2.6313,2.6326,2.6329,2.6333,2.6297,2.6353,2.6453,2.6463,2.6338,2.6337,2.6336,0,2.5928,2.5999,2.6057,2.6075,2.6119,2.6146,2.6165,2.6197,2.6223,2.626,2.6277,2.6319,2.6342,2.6375,2.6386,2.6363,2.6455,2.6425,2.6463,2.6463,2.6482,2.648,2.6585,2.6498,2.6498,2.6498,2.6498,0,2.601,2.606,2.6082,2.6117,2.6174,2.6184,2.6239,2.6257,2.6286,2.6325,2.6323,2.6359,2.6373,2.6412,2.6421,2.6477,2.6488,2.6496,2.6497,2.6495,2.6494,2.6509,2.6504,2.6501,2.65,2.65,2.6499,0,2.6078,2.6095,2.6158,2.6194,2.6205,2.6244,2.6275,2.631,2.6324,2.6374,2.6386,2.6408,2.6454,2.6469,2.6524,2.6531,2.6596,2.6594,2.6584,2.6584,2.6621,2.6617,2.6738,2.6755,2.6658,2.6659,2.666,0,2.6129,2.6168,2.6208,2.6234,2.6255,2.6297,2.6324,2.6336,2.6364,2.6406,2.6435,2.6481,2.6517,2.6591,2.6612,2.6654,2.6652,2.6692,2.6659,2.6655,2.6652,2.6649,2.6652,2.6698,2.6699,2.67,2.67,0,2.6216,2.6223,2.6262,2.6305,2.6337,2.6371,2.6404,2.6426,2.6442,2.6474,2.6521,2.655,2.6606,2.6651,2.6694,2.6714,2.671,2.6711,2.6722,2.6719,2.6712,2.6716,2.66,2.6708,2.6707,2.6707,2.6706,2.6706,2.6277,2.6311,2.6345,2.6389,2.6415,2.6446,2.648,2.6499,2.6539,2.6586,2.659,2.6641,2.6674,2.6732,2.6754,2.6793,2.6782,2.6798,2.6801,2.6805,2.6807,2.6707,2.6801,2.6801,2.6801,2.6801,2.6801,0,2.6364,2.6385,2.6426,2.6472,2.6507,2.6501,2.6537,2.6566,2.661,2.6642,2.6679,2.6732,2.6776,2.6802,2.6845,2.6872,2.6871,2.6883,2.688,2.6885,2.6815,2.6801,2.6883,2.6883,2.6883,2.6883,2.6883,2.6883,2.6413,2.647,2.6481,2.6551,2.6572,2.6622,2.6643,2.6671,2.6696,2.6757,2.6793,2.681,2.6839,2.6885,2.6925,2.6931,2.6947,2.6959,2.6964,2.6898,2.689,2.6882,2.6868,2.6963,2.6963,2.7031,2.7031,2.7032]},{"header":{"parameterUnit":"m.s-1","parameterCategory":1,"la1":30.2991,"la2":30.254,"lo1":-89.0895,"lo2":-89.0444,"dy":0.0017,"dx":0.0017,"nx":28,"ny":28,"refTime":"2024-05-13T21:00:00:Z","depth":0,"parameterNumber":3,"parameterNumberName":"V-component_of_WINDS"},"data":[0,0,0,0,0,0,0,0,0,0,0,0,0,0,0,0,0,0,0,0,0,0,0,0,0,0,0,0,0,0,0,0,0,0,0,0,0,0,0,0,0,0,0,0,0,0,0,0,0,0,0,0,0,0,0,0,0,0,1.0941,1.0942,0,1.1025,1.1026,1.1027,1.1053,1.1052,1.1052,1.1051,1.1133,1.1135,1.1138,0,0,0,0,0,0,0,0,0,0,0,0,0,1.0799,1.0801,1.0941,1.0942,1.0943,1.1025,1.1026,1.1027,1.1053,1.1052,1.1052,1.1051,1.1132,1.1135,1.1138,0,0,0,0,0,0,0,0,0,0,0,0,0,1.0869,1.0802,1.0941,1.0966,1.0969,1.1024,1.1026,1.1027,1.1053,1.1052,1.1052,1.1051,1.1131,1.1134,1.1138,1.1173,0,0,1.115,1.1151,0,0,0,0,0,0,0,0,1.0865,1.0874,1.0961,1.0964,1.0968,1.1028,1.1005,1.1076,1.1053,1.1021,1.1051,1.1051,1.1098,1.1104,1.1121,1.1177,1.118,1.115,1.1152,1.1154,1.1155,0,0,0,0,0,0,0,1.086,1.0871,1.0974,1.0963,1.0967,1.0971,1.0981,1.1019,1.1061,1.1024,1.1026,1.1035,1.11,1.1117,1.1123,1.1182,1.115,1.1153,1.1156,1.1157,1.1269,1.1269,0,0,0,0,0,0,1.0852,1.0867,1.0972,1.0977,1.0914,1.0974,1.0985,1.1009,1.1061,1.1069,1.1036,1.1036,1.1111,1.1119,1.1126,1.117,1.1154,1.1158,1.116,1.1268,1.1269,1.127,0,0,0,0,0,0,1.0849,1.0861,1.0968,1.0922,1.0936,1.0978,1.1004,1.1011,1.1029,1.1071,1.1078,1.1047,1.1111,1.1121,1.1161,1.1173,1.1159,1.1163,1.1267,1.1268,1.1269,1.1258,0,0,0,0,0,0,1.0845,1.086,1.0875,1.0923,1.0939,1.1004,1.1005,1.1013,1.1036,1.1037,1.1083,1.1089,1.1111,1.1156,1.1165,1.1178,1.1166,1.1266,1.1268,1.1269,1.1258,1.1259,1.126,0,0,0,0,0,1.0839,1.0868,1.0876,1.0888,1.0959,1.1004,1.1013,1.1039,1.1037,1.1052,1.1078,1.1088,1.117,1.1159,1.117,1.1185,1.1266,1.1267,1.1269,1.1258,1.1259,1.126,0,0,0,0,0,0,1.0819,1.0875,1.0884,1.0929,1.0962,1.1009,1.1028,1.104,1.1073,1.1073,1.1102,1.1112,1.115,1.1171,1.1158,1.1221,1.1218,1.1222,1.1206,1.1207,1.1208,1.1203,1.1169,0,0,0,0,0,1.082,1.0854,1.09,1.0935,1.0951,1.0987,1.1007,1.1024,1.1059,1.1073,1.1102,1.1134,1.1167,1.1188,1.1221,1.1261,1.127,1.1276,1.1277,1.1277,1.128,1.1302,1.1305,1.1275,1.1275,1.1275,0,0,1.0822,1.0857,1.0876,1.0932,1.096,1.0992,1.0998,1.1033,1.1057,1.1078,1.1118,1.114,1.1178,1.1218,1.1237,1.1237,1.1291,1.1279,1.128,1.1282,1.1304,1.1307,1.1309,1.1276,1.1276,1.1275,0,0,1.0843,1.0873,1.0905,1.0933,1.0975,1.0998,1.1005,1.105,1.1066,1.1108,1.1123,1.1151,1.1208,1.1234,1.1254,1.1283,1.1293,1.1292,1.1298,1.1318,1.1321,1.1323,1.1332,1.1336,1.1295,1.1295,1.1295,0,1.084,1.0892,1.092,1.0954,1.0977,1.0998,1.103,1.1055,1.1105,1.1119,1.1119,1.1189,1.1216,1.1262,1.1269,1.1285,1.1293,1.1288,1.1318,1.1321,1.1323,1.1333,1.1336,1.1295,1.1295,1.1295,1.1295,0,1.0886,1.0921,1.0942,1.0991,1.1016,1.1049,1.108,1.1102,1.1116,1.1139,1.1179,1.1212,1.1251,1.1263,1.1277,1.1311,1.1309,1.1313,1.1311,1.1325,1.1335,1.1339,1.1294,1.1294,1.1294,1.1295,0,0,1.0898,1.0961,1.0968,1.099,1.1037,1.1064,1.1097,1.1136,1.1154,1.1187,1.1214,1.1261,1.1264,1.1287,1.1304,1.1322,1.1342,1.1324,1.1325,1.1326,1.138,1.1377,1.1381,1.1348,1.1349,1.135,1.1376,0,1.0925,1.0986,1.1011,1.106,1.1092,1.1111,1.1139,1.117,1.1191,1.122,1.1243,1.1276,1.1278,1.1292,1.1311,1.1335,1.1353,1.1334,1.1373,1.1374,1.1363,1.1386,1.1383,1.1407,1.138,1.1381,1.1381,0,1.0965,1.0999,1.1051,1.1094,1.1108,1.1133,1.1171,1.1199,1.1233,1.1247,1.1272,1.1288,1.132,1.1316,1.1361,1.1347,1.1364,1.1378,1.1379,1.1384,1.1379,1.1391,1.1415,1.1419,1.1388,1.1387,1.1387,0,1.0968,1.1027,1.1066,1.1084,1.1134,1.1151,1.1172,1.1206,1.1228,1.126,1.1274,1.1309,1.1328,1.1353,1.1377,1.1372,1.1419,1.1417,1.1431,1.143,1.1441,1.144,1.1468,1.1451,1.1451,1.1451,1.1451,0,1.0996,1.1027,1.1068,1.1092,1.1126,1.1154,1.1187,1.1209,1.1239,1.1266,1.1284,1.1308,1.1338,1.1366,1.1384,1.1418,1.1426,1.1438,1.1442,1.1436,1.1435,1.1448,1.1447,1.1452,1.1452,1.1452,1.1451,0,1.1006,1.1035,1.1078,1.1122,1.1133,1.1157,1.1194,1.1216,1.1238,1.1272,1.1281,1.1315,1.1348,1.1374,1.1418,1.143,1.1465,1.147,1.1454,1.1457,1.1469,1.1468,1.1507,1.1513,1.1492,1.1492,1.1492,0,1.1022,1.1046,1.1093,1.1113,1.1134,1.1166,1.1189,1.1216,1.1238,1.1278,1.1295,1.1331,1.136,1.1412,1.144,1.1472,1.1478,1.1489,1.1483,1.1476,1.1478,1.1476,1.1479,1.149,1.1491,1.1491,1.1491,0,1.1047,1.106,1.1092,1.1129,1.1156,1.1186,1.1216,1.1231,1.1263,1.1287,1.1322,1.1345,1.1389,1.1423,1.1458,1.1478,1.1489,1.1492,1.1497,1.1492,1.1482,1.1487,1.1457,1.1492,1.1491,1.1491,1.1491,1.1491,1.1061,1.1083,1.1119,1.1154,1.118,1.1207,1.1231,1.1255,1.1286,1.1325,1.1338,1.1374,1.1406,1.1455,1.1475,1.1502,1.1502,1.151,1.1511,1.1513,1.1512,1.1477,1.1508,1.1508,1.1508,1.1508,1.1508,0,1.1087,1.1111,1.1143,1.1185,1.1212,1.1221,1.1254,1.1276,1.1308,1.1337,1.1366,1.1405,1.1438,1.1467,1.1501,1.1517,1.1523,1.1525,1.1524,1.1528,1.151,1.1502,1.1519,1.1519,1.1519,1.1519,1.1519,1.1519,1.1104,1.1142,1.1158,1.1208,1.1232,1.1268,1.1287,1.1311,1.1335,1.1379,1.1407,1.1426,1.1454,1.149,1.152,1.1527,1.1539,1.154,1.1548,1.1531,1.1529,1.1528,1.1521,1.1542,1.1542,1.1564,1.1564,1.1564]}]]